DECAYED

FENGYUN 1C DEB, 31802 (Decayed)

Orbit data source: Space-Track

FENGYUN 1C DEB, 31802 was space debris in SSO originally from a launch on Mon, 10 May 1999 UTC launched from the Taiyaun Space Center, China (TSC). Fengyun 1C debris stems from the Chinese weather satellite Fengyun-1C, which was intentionally destroyed by a Chinese anti-satellite missile in 2007. This event dramatically increased the amount of space debris, with thousands of trackable fragments posing hazards to satellites and human spaceflight. The Fengyun 1C debris cloud has become a focal point in discussions about space sustainability and the need for international regulations to prevent the creation of new debris.

Not visible in the next 10 days
Identifier
31802, 1999-025CGQ
Orbit
Decayed
Country
Flag of CNCN / PRC
Related business
Manufacturer
Unknown
Mission
Decayed spacecraft
Bus & Motor
Unknown
Mass
Unknown
Launch date (UTC)
1999-05-10 (26 years ago)
Launch vehicle
Unknown
Launch site
Taiyaun Space Center, China (TSC)
Object type
Payload
Rocket body
Debris
Shape & HBR
Unknown shape, 0.1 m
Radar Cross Section
Small (<0.1 m²)

Expand to show TLE details & history
Last TLE update: 7 months ago

TLE from 7 months ago
0 FENGYUN 1C DEB
1 31802U 99025CGQ 25098.19348600  .01149601  59805-3  33839-2 0  9994
2 31802  98.1823 265.0998 0028883 253.1094 106.7010 15.92013492638658
Epoch: 2025-04-08T04:38Z
TLE epoch observation values (Epoch: 2025-04-08T04:38:37.190Z)
Latitude
-0.00003°
Longitude
-1.25323°
Altitude
305.405 km
Speed
7.721 km/s
True Right ascension
17h 40m 23s
True Declination
0° 00' 00"
Sunlit
Object was in full shadow at epoch
Visualization orbit readout
Latitude
Unknown
Longitude
Unknown
Altitude
Unknown
Speed
Unknown
Apparent Right ascension
Unknown
Apparent Declination
Unknown
Sunlit
N/A
Visualization observer readout
Local Sidereal Time
06:57:39
Azimuth
Unknown
Elevation
Unknown
Doppler factor
Unknown
Orbital elements
Apogee altitude
312.825 km
Perigee altitude
274.286 km
Semi-major axis
6,671.692 km
Eccentricity
0.00289
Inclination
98.1823°
RAAN
265.0998°
Arg. of periapsis
253.1094°
True anomaly
107.01768°
Mean anomaly
106.701°
Eccentric anomaly
106.85937°
Mean motion
3.98281 °/min
Orbital period
90.39 mins
BSTAR
0.0033839
Loading maneuver chart data...
Computing Atmospheric mass density...

Documentation

Showing up to 5 results
|